Regional Weather Roundup
Issued by NWS

Home | Current Version | Previous Version | Text Only | Print | Product List | Glossary Off
Versions: 1 2 3 4 5 6 7 8 9 10 11 12 13 14 15 16 17 18 19 20 21 22 23 24 25 26 27 28 29 30 31 32 33 34 35 36 37 38 39 40 41 42 43 44 45 46 47 48 49 50

090
ASUS45 KSLC 241210
RWRUT

UTAH REGIONAL WEATHER ROUNDUP
NATIONAL WEATHER SERVICE SALT LAKE CITY UT
500 AM MST FRI FEB 24 2017

UTZ001>011-023>025-241300-

NORTHERN UTAH

CITY           SKY/WX    TMP DP  RH WIND       PRES   REMARKS
BRIGHAM CITY     N/A     26  23  89 CALM      29.96R VSB 3/4
HILL AFB       MOCLDY    21  19  93 SE7       29.93S WCI  13
LOGAN          LGT SNOW  26  22  84 CALM      29.93R FOG
OGDEN          CLOUDY    22  21  96 S6        29.94R WCI  14
SALT LAKE CITY LGT SNOW  27  24  89 S3        29.96R FOG
TOOELE VALLEY  CLOUDY    28  21  74 NW10      29.98R WCI  19
WENDOVER       MOCLDY    27   9  46 NW13G22   29.99R WCI  16
HEBER CITY     PTCLDY     3   0  85 S3        29.88R
WEST JORDAN    CLOUDY    28  28 100 CALM      29.96R

$$

UTZ011>015-024>027-241300-

CENTRAL/NORTHEAST UTAH

CITY           SKY/WX    TMP DP  RH WIND       PRES   REMARKS
PROVO AIRPORT  CLOUDY    24  21  88 NE5       29.96R WCI  18
MOAB/CANYONLAN CLOUDY    29  15  56 W8        29.85R WCI  21
DELTA          CLOUDY    18  18 100 S5        29.97R VSB<1/4 WCI  11
PRICE          PTCLDY    21  11  65 NW8       29.84R WCI  11
ROOSEVELT      CLOUDY    23  19  86 W3        29.87R
VERNAL         CLOUDY    20  17  88 N3        29.84R

$$

UTZ013>016-019>022-027-241300-

SOUTHERN UTAH

CITY           SKY/WX    TMP DP  RH WIND       PRES   REMARKS
BRYCE CANYON   PTCLDY    10   5  80 W8        29.84R WCI  -2
CEDAR CITY     PTCLDY    22  14  71 S3        29.93R
MILFORD        LGT SNOW  23  21  92 CALM      29.96R FOG
ST GEORGE      MOSUNNY   37  17  44 W8        30.03R WCI  31
HANKSVILLE     CLOUDY    27  12  54 W3        29.91R
BLANDING       CLEAR     23  15  72 W6        29.92R WCI  15

$$

REGIONAL REPORTS     COLORADO/ARIZONA

CITY           SKY/WX    TMP DP  RH WIND       PRES   REMARKS
CRAIG, CO      CLOUDY    17  10  74 W6        29.81R WCI   9
GRAND JUNCTION MOCLDY    23  20  88 S3        29.85R
RIFLE, CO      FLURRIES  24  19  81 W6        29.83R WCI  17
MONTROSE, CO   PTCLDY    21  14  74 CALM      29.85R
CORTEZ, CO     CLOUDY    21  19  92 NE3       29.85R
COLORADO CITY    N/A     28  18  64 CALM      29.99R
PAGE, AZ       CLEAR     35   5  28 W7        29.92R WCI  29
GRAND CANYON   CLEAR     15  10  80 NE3       29.94R
KINGMAN, AZ    CLEAR     26   5  40 CALM      30.02R
FLAGSTAFF, AZ  CLEAR     20   5  52 W7        29.93R WCI  11

$$

REGIONAL REPORTS    NEVADA/IDAHO/WYOMING

CITY           SKY/WX    TMP DP  RH WIND       PRES   REMARKS
LAS VEGAS, NV  CLEAR     39  17  41 CALM      30.05R
ELY, NY        CLOUDY    15   8  73 CALM      29.97R
ELKO, NV       CLOUDY    22  17  81 SW9       30.01R WCI  12
POCATELLO, ID  LGT SNOW  21  19  92 SW23      29.93R VSB 3/4 WCI   5
BURLEY, ID     CLOUDY    25  15  66 W21       29.94R WCI  11
FORT BRIDGER,  LGT SNOW  14  14  99 W10       29.83R WCI   2
EVANSTON, WY   LGT SNOW  13  10  88 SW5       29.81R FOG     WCI   5
ROCK SPRINGS,  CLOUDY    10   6  84 SW5       29.80R WCI   2

$$




USA.gov is the U.S. government's official web portal to all federal, state and local government web resources and services.